Temperature
23 22 22 21 20 20 23 25 27 27 27 28 27 27 26 25 23 22 21 21 22 22 21 21 21 20 20 20 20 20 20 19 19 19 19 19 19 19 19 19 19 19 18 18 19 18 18 18 18
23 23 22 21 20 21 24 26 27 27 27 27 27 26 25 24 22 21 21 22 22 22 21 21 21 20 20 20 20 20 19 19 19 19 19 19 19 19 19 19 19 18 18 18 18 18 18 18 18
23 23 22 20 21 22 24 26 27 28 28 28 27 26 25 24 22 22 22 22 22 22 21 21 21 20 20 20 20 20 19 19 19 19 19 19 19 19 19 18 18 18 18 18 18 18 18 18 18
23 22 22 20 22 24 26 26 27 28 28 27 26 25 25 24 23 23 22 22 22 22 21 21 21 20 20 20 20 19 19 19 19 19 19 19 19 19 18 18 18 18 18 18 18 18 18 18 17
23 23 21 21 23 26 27 28 28 27 27 27 26 24 24 24 24 23 22 22 22 22 21 21 21 20 20 20 20 19 19 19 19 19 19 18 18 18 18 18 18 18 18 18 18 18 18 18 17
23 21 21 22 25 27 28 29 28 27 26 26 25 24 22 23 23 22 22 22 22 22 21 21 21 20 20 20 20 19 19 19 19 19 18 18 18 18 18 18 18 18 18 18 18 18 18 17 17
23 21 22 23 25 27 28 29 28 27 26 26 25 23 22 21 23 22 22 22 22 22 21 21 21 20 20 20 20 19 19 19 19 19 19 18 18 18 18 18 18 18 18 18 18 18 18 18 17
25 21 23 23 25 27 28 29 29 28 27 26 26 23 22 21 22 22 21 22 22 21 21 21 21 20 20 20 20 19 19 19 19 19 19 18 18 18 18 18 18 18 18 18 18 18 18 18 17
26 22 22 24 26 27 28 28 28 28 27 26 26 26 24 22 22 21 21 21 21 21 21 21 21 21 20 20 19 19 19 19 19 19 18 18 18 18 18 18 18 18 18 18 18 18 18 18 17
25 21 23 26 27 27 29 28 28 27 26 25 25 25 24 22 22 21 21 21 21 21 21 21 21 21 20 20 20 19 19 19 19 19 18 18 18 18 18 18 18 18 18 18 18 18 18 18 18
25 24 26 27 29 29 29 29 29 26 24 25 25 24 23 23 22 22 21 21 21 21 21 21 21 21 20 20 20 20 19 19 19 19 18 18 18 18 18 18 18 18 18 18 18 18 18 18 18
26 26 28 29 30 30 29 29 28 27 27 27 27 25 24 23 22 22 22 21 21 21 21 21 21 20 20 20 20 20 20 19 19 19 18 18 18 18 18 18 18 18 18 18 18 18 18 18 18
26 26 28 29 30 30 30 29 28 27 28 27 26 25 24 23 23 23 22 22 21 21 21 21 21 21 20 20 20 20 20 19 19 19 18 18 18 18 18 18 18 18 18 18 18 18 18 18 18
26 27 28 29 29 30 29 28 27 27 27 25 24 24 24 24 23 23 22 21 21 21 21 21 20 20 20 20 20 20 20 19 19 19 18 18 18 18 18 18 18 18 18 18 18 18 18 18 18
28 26 26 27 28 29 29 27 26 27 26 25 24 24 24 24 23 23 23 22 22 21 21 21 20 20 20 20 20 19 19 19 19 19 18 18 18 18 18 18 18 18 18 18 18 18 18 18 18
25 25 25 26 27 28 28 26 26 27 26 24 24 23 23 23 23 23 23 22 22 21 21 20 20 19 20 19 19 19 19 19 19 19 19 18 18 18 18 18 18 18 18 18 18 18 18 18 18
23 24 25 26 27 28 27 26 26 26 26 24 24 23 22 22 23 23 22 22 21 21 21 20 20 19 19 19 19 19 19 19 19 19 19 18 18 18 18 18 18 18 18 18 18 18 18 18 18
22 24 25 26 27 27 26 25 25 26 25 24 24 23 22 22 22 22 22 22 21 21 21 20 20 20 19 19 19 19 18 19 19 19 19 18 18 18 18 18 18 18 18 18 18 18 18 18 18
24 24 24 26 28 27 26 25 25 25 25 24 23 23 22 22 23 22 22 21 21 21 20 20 20 20 19 19 19 19 18 18 18 18 18 18 18 18 18 18 18 18 18 18 18 18 18 17 17
25 24 25 26 27 27 25 25 24 24 24 24 23 22 22 22 21 22 21 21 21 21 20 20 20 19 19 19 19 19 18 18 18 18 18 18 18 18 18 18 18 18 18 18 18 18 18 17 17
25 25 25 26 27 26 26 24 23 23 24 24 23 23 22 22 21 21 21 21 21 20 20 20 20 19 19 18 18 18 18 18 18 18 18 18 18 18 18 18 18 18 18 18 18 18 17 17 17
24 26 27 27 25 23 25 22 22 22 22 22 22 22 22 22 22 21 21 21 20 20 20 20 19 19 19 18 18 18 18 18 18 18 18 18 18 18 18 18 18 18 18 18 17 17 17 17 17
25 27 27 27 25 23 23 22 21 21 22 22 21 22 22 22 22 22 21 21 20 20 20 19 19 19 19 18 18 18 18 18 18 18 18 18 18 18 17 17 17 18 18 18 17 17 17 17 17
27 27 25 22 21 22 22 22 21 20 21 21 21 22 21 22 22 22 21 21 20 20 19 19 19 19 18 18 18 18 18 18 18 17 17 17 17 17 17 17 17 18 18 18 17 17 17 17 17
26 23 21 22 20 20 21 21 20 21 21 21 21 21 21 21 21 21 21 21 20 19 19 19 18 18 18 18 18 18 17 18 18 17 17 17 17 17 17 17 17 18 17 17 17 17 17 17 17
25 22 21 21 21 20 21 21 20 21 21 22 22 22 21 21 21 21 21 21 20 19 19 19 18 18 18 18 17 17 17 17 17 17 17 17 18 18 18 17 17 17 17 17 17 17 17 17 17
25 23 21 20 21 20 20 20 21 21 21 21 21 21 21 20 21 21 21 21 20 20 19 19 19 18 18 17 17 17 17 17 17 17 17 17 17 17 17 17 17 17 17 17 17 17 17 17 17
25 24 20 20 21 21 21 21 20 20 20 20 20 20 21 20 20 21 21 21 20 20 19 19 19 18 18 18 17 17 17 17 17 17 17 17 17 17 17 17 17 17 17 17 17 17 17 17 17
24 24 21 19 19 20 20 20 21 20 20 20 20 21 21 20 21 21 21 21 20 20 19 19 18 18 18 17 17 17 17 17 17 17 17 17 17 17 17 17 17 17 17 17 17 17 17 17 17
24 23 21 21 20 19 19 20 22 20 20 20 20 21 21 21 21 21 21 21 20 20 19 19 18 18 18 18 18 17 17 17 17 17 17 17 17 17 17 17 17 17 17 17 17 17 17 17 17
Wind_Speed
7 6 3 1 3 3 2 1 4 6 5 7 10 11 9 5 4 5 7 18 21 19 20 23 23 22 22 21 20 20 19 18 18 18 18 18 18 17 17 17 17 17 17 17 17 17 17 17 17
4 4 1 2 3 2 3 1 6 7 9 12 11 11 8 7 8 11 10 19 22 19 19 21 24 23 22 21 20 20 19 18 17 17 17 17 17 17 17 17 17 17 17 17 16 16 16 16 16
3 2 2 2 1 2 3 2 6 7 10 10 7 6 6 7 10 7 13 21 19 16 18 22 25 23 22 21 20 19 19 18 17 17 17 17 17 17 17 17 16 16 16 16 16 15 15 15 14
2 2 2 2 4 6 6 5 6 9 7 9 9 6 5 5 7 14 22 21 20 15 18 22 24 24 23 22 21 20 19 18 17 17 17 17 17 16 16 16 16 16 16 15 14 14 13 13 12
2 3 2 2 5 5 5 6 6 9 6 9 11 7 5 5 19 23 21 21 20 16 16 22 24 23 23 22 21 20 19 18 17 17 17 17 16 16 16 16 16 15 15 14 13 13 12 11 10
2 3 2 4 5 5 2 5 7 10 11 10 10 8 5 12 21 20 19 18 18 18 15 20 24 23 22 21 21 20 19 18 17 17 17 17 16 16 16 15 15 14 14 13 12 11 11 10 9
3 2 3 4 4 3 2 6 9 11 11 8 9 7 6 12 18 20 17 16 16 16 14 15 19 21 22 21 21 20 19 18 18 17 17 17 16 16 15 15 15 14 13 12 11 10 9 8 8
5 3 3 3 3 3 2 3 6 12 9 9 8 10 10 14 17 19 17 15 14 13 13 12 14 16 17 18 20 20 19 18 18 17 17 17 16 16 15 15 14 13 13 12 11 10 8 7 6
3 2 4 5 3 3 3 5 2 6 9 5 4 7 13 20 21 20 17 14 13 14 11 12 11 12 14 15 18 19 19 18 18 17 18 16 13 14 13 14 14 13 12 11 10 9 7 5 5
4 4 8 7 6 5 4 6 6 6 8 5 5 9 18 20 21 21 21 19 17 16 14 12 13 12 13 14 15 14 14 15 14 14 14 13 13 12 12 14 13 12 11 10 9 7 6 4 3
5 7 8 9 9 5 3 4 5 11 7 11 15 18 19 18 18 19 19 18 18 18 16 15 14 12 11 8 11 10 10 12 12 13 14 13 11 10 10 10 10 10 9 7 6 5 4 3 3
6 10 11 11 9 4 3 2 4 6 10 14 19 22 20 18 17 18 19 18 16 17 16 16 15 13 10 10 9 9 8 9 9 12 14 11 7 6 7 7 8 8 7 5 4 3 3 3 3
7 10 11 11 9 7 3 2 4 4 9 14 17 18 18 17 14 14 15 16 16 16 16 17 16 15 12 10 9 10 8 9 11 12 13 13 7 6 6 6 7 8 7 6 5 4 3 3 3
7 9 10 9 8 5 2 1 4 6 14 16 17 16 16 17 15 13 14 15 17 17 16 16 16 15 13 11 9 8 9 10 11 11 13 15 12 8 6 5 5 6 7 8 7 5 3 3 3
6 8 11 8 6 4 0 2 4 10 15 17 17 16 16 15 14 15 16 17 18 17 16 16 16 14 14 13 11 9 10 11 9 10 14 15 14 12 8 5 5 6 8 7 5 4 3 3 3
7 5 6 9 6 5 3 6 7 9 13 13 14 14 13 12 13 12 13 13 14 15 16 16 17 15 13 11 9 7 9 9 9 11 12 14 14 14 9 6 5 7 7 5 4 3 3 2 2
4 3 7 10 6 4 4 6 6 7 12 12 12 13 13 11 10 11 11 12 13 15 15 15 14 15 13 11 8 7 7 8 9 10 10 12 13 13 9 6 5 7 5 4 4 3 3 3 2
6 5 7 9 7 3 4 5 5 6 11 12 12 12 13 13 12 11 10 11 11 12 13 13 13 13 12 9 7 6 6 6 7 8 9 12 12 12 9 5 6 6 4 4 3 4 3 3 3
7 9 12 13 10 4 4 5 6 5 8 10 10 11 11 10 8 8 9 9 10 10 11 12 13 12 10 8 8 7 7 7 6 6 10 12 11 11 8 5 5 5 5 5 5 4 3 2 2
10 11 12 11 7 1 1 3 2 3 7 8 10 11 11 9 8 10 10 11 11 12 12 13 13 12 10 8 6 5 5 5 6 6 7 10 11 11 9 6 6 6 5 5 5 4 3 1 2
12 10 9 9 7 3 2 3 3 2 1 3 5 8 10 13 14 13 11 10 11 12 13 13 12 12 10 9 6 5 4 3 4 5 6 7 10 10 8 8 6 6 6 6 5 5 5 3 1
11 11 9 8 3 4 1 2 5 3 2 2 3 5 8 10 11 11 11 10 11 11 10 10 11 11 11 11 10 10 8 7 6 6 6 6 8 9 9 8 7 6 6 6 6 5 4 4 2
11 11 7 5 1 2 4 3 5 3 4 5 3 3 5 7 12 13 12 11 9 10 10 10 10 10 10 11 12 11 8 6 5 6 7 6 5 7 8 8 7 6 6 6 6 5 5 4 4
10 5 4 4 5 2 4 2 4 3 5 5 4 2 3 6 9 11 10 9 7 8 9 9 10 9 10 11 11 11 11 10 9 8 8 6 5 5 7 8 7 6 6 6 6 6 6 4 4
3 3 3 5 4 4 4 2 5 7 6 4 3 4 4 6 8 10 10 10 10 10 10 10 10 9 10 11 11 11 11 11 11 10 9 8 6 5 8 8 7 7 6 6 5 6 5 5 5
6 10 8 6 5 4 3 2 6 8 5 2 2 3 4 6 8 11 12 12 11 11 10 10 10 9 10 11 10 9 10 8 8 9 9 9 8 8 8 8 8 8 7 7 6 5 5 5 5
5 5 10 8 4 1 3 3 5 4 3 2 1 1 5 7 8 10 11 11 11 11 10 10 10 8 9 10 10 9 9 9 9 8 8 7 7 7 9 9 9 8 8 8 7 5 5 5 5
8 7 6 6 5 2 3 3 5 6 5 2 0 1 4 5 7 9 10 10 10 9 8 8 8 9 8 9 9 10 9 9 8 8 9 9 8 8 9 9 9 9 8 8 7 5 5 6 5
2 4 5 5 6 6 3 6 6 8 7 5 3 3 3 4 6 7 8 9 9 8 8 7 7 7 7 8 8 8 9 8 8 8 9 8 8 8 9 10 9 9 9 8 8 7 7 7 6
6 6 7 5 4 5 5 6 5 7 7 6 4 3 3 6 7 7 9 9 8 8 8 7 7 7 7 8 8 8 8 8 8 8 7 7 8 8 9 9 9 9 9 8 9 9 8 8 8
Wind_Direction
190 196 180 87 37 33 306 269 115 92 71 77 87 98 101 96 131 141 134 140 138 143 147 145 143 140 136 133 131 128 125 122 120 118 117 117 117 116 116 116 117 116 115 115 115 115 115 114 115
184 194 133 43 66 19 296 179 110 113 119 103 87 88 80 71 90 108 124 140 139 142 144 145 143 141 139 137 135 133 131 129 126 124 123 122 122 121 120 120 119 119 119 118 118 118 117 116 116
203 187 108 65 96 203 252 188 144 126 122 108 96 69 75 107 114 118 138 138 136 139 142 146 145 143 142 141 139 138 137 135 132 130 129 127 126 125 124 123 122 122 122 121 121 121 120 119 118
153 74 51 66 252 238 221 217 155 123 104 100 99 74 67 104 122 133 138 139 136 138 142 147 146 145 145 144 144 143 141 139 137 135 133 132 130 129 127 126 126 125 125 125 125 124 122 119 117
104 96 54 300 262 253 222 192 162 128 120 108 101 93 59 61 117 131 140 141 140 140 144 148 148 148 148 148 147 146 144 143 141 139 137 135 134 133 131 129 130 129 130 130 129 127 124 121 117
65 87 85 273 285 291 234 170 137 119 119 111 107 108 81 122 128 138 141 143 144 144 145 149 150 151 151 150 150 149 148 147 145 143 141 139 137 136 134 134 134 134 133 133 133 130 126 120 113
144 133 220 247 277 294 202 163 141 137 136 139 131 110 121 140 139 142 142 141 143 145 146 148 152 154 154 153 153 152 151 150 149 147 144 142 141 139 139 138 138 138 138 137 137 134 130 122 113
169 121 281 272 261 260 186 145 150 138 133 135 132 136 156 159 143 139 139 140 142 147 149 149 151 153 154 156 157 156 155 154 153 152 150 148 146 145 144 143 144 145 145 145 144 141 136 127 116
154 92 252 240 229 255 190 134 137 112 122 135 138 149 152 146 139 137 139 141 149 154 156 154 150 152 153 156 161 159 159 159 158 157 156 152 148 147 148 150 152 153 153 153 153 150 144 133 121
140 186 235 229 228 236 212 168 149 113 121 113 104 119 139 144 144 148 153 159 161 163 164 162 158 158 158 162 159 161 161 161 159 159 156 152 152 155 157 161 160 161 161 161 164 162 154 146 133
193 219 252 264 257 244 220 192 152 135 156 167 157 150 151 151 153 157 162 166 167 167 167 166 165 165 167 160 158 161 159 161 163 164 161 161 161 164 162 163 165 166 167 168 174 174 175 174 164
246 263 265 269 272 268 229 172 118 163 184 172 159 154 155 158 163 165 166 168 165 168 173 169 169 171 173 161 164 166 165 168 172 176 173 167 162 160 164 168 171 171 175 179 181 188 209 206 189
260 269 273 268 272 263 248 155 135 143 147 150 152 152 156 161 166 165 167 164 165 172 175 174 173 174 173 165 172 173 172 177 180 180 181 174 166 167 169 176 180 184 183 187 193 200 195 185 170
262 283 289 283 277 271 236 211 117 156 147 149 157 164 166 166 164 163 164 167 170 177 179 175 174 176 172 171 176 174 175 177 178 180 181 176 171 169 169 174 183 189 190 190 189 187 174 167 151
296 312 309 290 278 271 176 304 199 172 155 156 164 170 170 170 168 173 170 171 172 176 175 176 176 175 174 174 178 176 176 175 176 178 177 174 171 171 169 173 181 188 186 178 169 164 157 154 142
340 330 302 291 285 271 148 238 242 177 161 161 167 170 169 173 177 178 173 172 171 169 170 175 178 175 172 172 171 167 170 168 172 172 173 172 171 171 168 172 182 182 171 160 153 147 145 148 139
348 293 281 292 282 257 174 221 239 178 164 163 169 169 167 171 180 181 176 173 172 171 170 172 172 172 170 166 160 153 157 163 168 166 167 170 168 169 167 170 177 170 156 156 168 146 147 148 157
252 273 285 283 285 270 197 215 232 180 165 164 168 168 168 174 186 184 175 173 170 170 167 168 168 166 161 155 147 144 152 163 163 164 168 169 171 169 162 164 168 157 147 154 153 146 144 147 161
249 274 281 280 284 277 213 208 229 194 171 167 167 169 171 174 175 166 170 171 163 165 166 167 165 165 159 158 161 160 169 171 167 170 173 173 173 167 159 165 163 155 158 165 157 142 137 133 130
256 266 276 286 292 326 197 243 256 190 183 174 167 167 166 161 165 172 170 170 171 172 170 166 166 164 164 168 166 160 159 169 168 171 177 179 175 169 171 166 170 164 156 155 156 142 133 133 138
259 249 254 265 298 337 116 339 307 297 170 167 163 164 170 172 173 172 169 170 168 171 172 171 166 165 166 161 147 143 135 134 158 174 180 184 177 171 168 172 168 166 163 167 168 155 144 155 165
257 252 248 264 286 291 136 215 288 282 297 205 176 177 182 175 172 170 166 164 175 177 170 163 164 168 170 165 166 169 173 177 183 180 178 178 177 172 172 172 170 167 164 165 173 163 150 144 158
237 251 254 260 233 354 2 121 283 325 304 289 262 218 197 181 174 172 172 171 180 177 170 169 167 171 173 174 176 177 178 177 166 167 170 176 177 174 176 173 168 165 162 167 168 155 154 152 157
236 263 338 30 69 10 280 157 273 256 245 267 282 262 206 184 181 170 165 162 175 179 172 168 172 178 179 178 180 180 176 171 170 175 179 181 178 180 177 174 170 169 167 167 171 168 164 164 158
226 122 23 350 4 259 276 140 249 260 249 238 258 263 218 181 174 167 164 169 178 180 177 174 178 183 182 181 183 182 179 177 179 180 184 181 180 187 189 183 177 177 177 173 168 168 172 171 169
216 153 164 197 221 262 319 221 255 265 261 253 247 225 199 182 176 174 174 175 180 180 177 178 182 186 184 183 184 182 179 182 184 183 183 185 188 190 185 183 182 182 179 178 173 173 180 177 180
192 184 174 150 167 155 278 277 295 303 323 331 279 169 192 185 178 179 176 175 177 177 178 179 180 182 184 184 181 180 182 184 185 183 182 183 185 190 185 183 184 185 182 179 174 180 187 179 187
174 164 106 123 157 226 274 247 236 259 259 265 247 199 188 181 178 178 172 173 175 175 172 174 178 182 183 182 183 185 186 187 185 180 184 186 189 191 180 182 184 185 186 183 179 182 190 186 196
152 125 117 129 147 158 222 262 222 208 211 215 229 217 184 182 181 178 170 170 167 164 166 172 173 174 178 184 185 182 184 185 181 183 186 186 188 186 183 184 185 188 189 186 185 193 191 194 203
153 159 140 148 198 162 168 259 257 197 206 206 212 194 185 185 174 171 165 160 162 166 169 174 177 178 183 184 182 182 181 177 179 184 184 181 184 187 185 184 187 192 191 187 188 198 198 198 205
Height
1502 1502 1502 1502 1503 1509 1507 1494 1485 1483 1483 1482 1483 1485 1488 1492 1498 1506 1504 1506 1510 1514 1518 1522 1524 1526 1528 1529 1531 1532 1534 1535 1536 1538 1539 1540 1541 1542 1543 1544 1545 1546 1547 1548 1549 1550 1551 1552 1552
1502 1502 1503 1502 1509 1519 1508 1490 1486 1484 1483 1483 1485 1487 1489 1494 1495 1498 1502 1508 1511 1514 1518 1522 1524 1527 1528 1530 1532 1533 1535 1536 1537 1539 1540 1541 1542 1543 1545 1546 1546 1547 1549 1549 1550 1552 1553 1554 1554
1502 1502 1504 1505 1511 1514 1505 1489 1485 1483 1483 1483 1487 1489 1492 1496 1497 1499 1503 1508 1512 1516 1519 1522 1525 1527 1529 1531 1532 1534 1535 1537 1538 1540 1541 1542 1543 1545 1546 1547 1548 1549 1550 1551 1552 1553 1554 1556 1557
1503 1504 1505 1509 1510 1498 1491 1485 1483 1483 1484 1484 1487 1492 1496 1498 1498 1500 1505 1509 1512 1516 1520 1523 1525 1527 1529 1531 1533 1535 1536 1538 1539 1541 1542 1543 1545 1546 1547 1548 1549 1550 1551 1553 1554 1555 1556 1558 1559
1502 1503 1508 1512 1503 1489 1482 1480 1482 1482 1484 1486 1487 1494 1498 1500 1500 1503 1506 1510 1512 1516 1520 1523 1525 1528 1530 1531 1533 1535 1537 1538 1540 1541 1543 1544 1546 1547 1548 1549 1551 1552 1553 1554 1556 1557 1558 1560 1561
1501 1502 1513 1514 1500 1485 1480 1480 1481 1482 1485 1487 1489 1494 1501 1501 1501 1505 1508 1511 1514 1516 1519 1523 1525 1528 1530 1532 1534 1535 1537 1539 1541 1542 1544 1545 1547 1548 1549 1550 1552 1553 1554 1556 1557 1559 1560 1562 1563
1501 1504 1509 1505 1498 1488 1480 1479 1479 1481 1484 1487 1488 1494 1501 1502 1502 1505 1509 1512 1514 1517 1519 1522 1525 1528 1530 1532 1534 1536 1538 1539 1541 1543 1544 1546 1547 1549 1550 1552 1553 1554 1556 1557 1559 1560 1562 1563 1564
1497 1501 1504 1502 1496 1489 1479 1478 1478 1478 1482 1486 1487 1491 1497 1501 1503 1505 1509 1512 1515 1517 1519 1522 1524 1527 1529 1532 1534 1536 1538 1540 1542 1543 1545 1547 1548 1550 1551 1553 1554 1556 1557 1559 1560 1562 1563 1564 1565
1496 1504 1508 1499 1492 1486 1478 1478 1479 1479 1481 1484 1485 1487 1491 1498 1502 1505 1508 1512 1514 1517 1519 1521 1524 1526 1529 1531 1533 1536 1538 1540 1542 1544 1545 1547 1549 1550 1552 1554 1555 1557 1558 1560 1561 1563 1564 1565 1567
1493 1504 1496 1485 1481 1480 1477 1477 1478 1480 1482 1484 1486 1488 1492 1496 1499 1502 1504 1507 1511 1514 1517 1520 1522 1525 1528 1530 1533 1535 1537 1540 1542 1543 1545 1547 1549 1551 1553 1554 1556 1557 1559 1560 1562 1564 1565 1566 1567
1488 1491 1483 1479 1476 1475 1475 1475 1475 1478 1482 1479 1481 1485 1490 1495 1498 1500 1502 1505 1508 1512 1515 1518 1521 1524 1526 1529 1531 1534 1536 1539 1541 1543 1545 1547 1549 1551 1553 1554 1556 1558 1559 1561 1563 1564 1566 1567 1568
1486 1481 1479 1476 1473 1473 1472 1472 1474 1475 1475 1476 1478 1481 1486 1492 1496 1498 1500 1504 1507 1510 1513 1516 1519 1522 1525 1528 1530 1533 1535 1538 1540 1543 1545 1547 1549 1551 1553 1555 1556 1558 1560 1561 1563 1564 1566 1567 1568
1482 1479 1475 1473 1471 1470 1469 1470 1471 1473 1473 1476 1479 1481 1484 1489 1493 1496 1499 1502 1505 1508 1511 1514 1517 1520 1523 1526 1529 1531 1534 1537 1540 1542 1544 1546 1548 1550 1552 1554 1556 1558 1560 1561 1563 1564 1566 1567 1567
1479 1475 1472 1470 1468 1467 1468 1469 1470 1472 1473 1475 1479 1481 1483 1486 1490 1494 1497 1500 1503 1505 1509 1512 1515 1518 1521 1524 1527 1529 1532 1535 1539 1541 1543 1546 1548 1550 1552 1554 1556 1558 1559 1561 1563 1564 1565 1566 1567
1476 1476 1472 1467 1465 1465 1467 1472 1469 1469 1471 1474 1477 1479 1481 1484 1487 1490 1493 1496 1499 1502 1506 1509 1512 1515 1519 1522 1525 1528 1531 1534 1537 1540 1543 1545 1547 1550 1552 1553 1555 1557 1559 1560 1562 1564 1565 1566 1567
1477 1481 1484 1469 1465 1463 1471 1480 1469 1469 1470 1473 1476 1479 1481 1483 1485 1488 1491 1494 1496 1499 1502 1506 1509 1513 1517 1520 1523 1525 1529 1532 1535 1538 1541 1544 1546 1549 1551 1552 1554 1556 1558 1559 1561 1563 1564 1565 1566
1487 1492 1487 1474 1462 1462 1468 1474 1465 1467 1469 1472 1475 1477 1479 1481 1484 1486 1488 1491 1494 1496 1499 1502 1506 1510 1514 1518 1521 1524 1527 1530 1533 1536 1539 1542 1545 1547 1549 1551 1553 1555 1556 1558 1560 1561 1563 1564 1565
1496 1491 1486 1479 1464 1463 1467 1469 1464 1465 1467 1469 1471 1474 1476 1478 1480 1483 1486 1488 1491 1494 1497 1500 1504 1507 1511 1515 1519 1522 1525 1529 1532 1535 1537 1540 1543 1545 1547 1550 1552 1553 1555 1557 1558 1560 1562 1563 1564
1483 1486 1486 1474 1461 1463 1466 1467 1465 1464 1465 1467 1469 1470 1472 1475 1479 1482 1485 1487 1490 1492 1495 1497 1500 1504 1508 1512 1515 1518 1522 1525 1529 1532 1535 1538 1540 1543 1545 1548 1550 1552 1553 1555 1557 1559 1560 1562 1563
1479 1484 1482 1471 1460 1462 1467 1468 1466 1464 1465 1465 1467 1469 1470 1473 1477 1480 1482 1484 1487 1488 1491 1495 1498 1501 1505 1509 1512 1516 1520 1523 1526 1530 1533 1535 1538 1540 1543 1546 1548 1550 1552 1554 1555 1557 1559 1560 1562
1476 1479 1476 1473 1464 1462 1469 1477 1472 1467 1465 1466 1467 1468 1469 1470 1473 1476 1479 1481 1484 1486 1488 1491 1494 1498 1502 1506 1510 1514 1518 1521 1524 1526 1530 1532 1535 1538 1540 1543 1545 1548 1550 1551 1553 1555 1557 1558 1560
1477 1464 1464 1465 1473 1483 1475 1495 1480 1472 1468 1466 1466 1466 1467 1468 1471 1474 1476 1479 1482 1484 1487 1489 1493 1496 1500 1503 1506 1509 1512 1515 1518 1522 1526 1530 1533 1535 1538 1540 1543 1545 1547 1549 1551 1553 1555 1557 1558
1464 1456 1459 1462 1471 1483 1481 1492 1488 1475 1473 1468 1465 1465 1466 1466 1468 1472 1474 1477 1481 1484 1486 1488 1491 1494 1497 1500 1503 1506 1509 1512 1516 1520 1523 1527 1530 1532 1535 1538 1540 1543 1545 1547 1549 1551 1553 1555 1557
1452 1456 1462 1470 1482 1498 1489 1491 1493 1481 1473 1467 1463 1464 1465 1467 1469 1471 1474 1477 1480 1483 1485 1487 1489 1492 1494 1496 1500 1503 1506 1509 1513 1516 1520 1523 1526 1529 1532 1536 1538 1540 1543 1545 1547 1549 1551 1553 1555
1453 1474 1496 1498 1507 1504 1487 1489 1489 1471 1465 1464 1462 1463 1465 1466 1468 1470 1473 1475 1478 1481 1483 1485 1487 1489 1491 1493 1496 1499 1502 1506 1509 1512 1516 1520 1523 1526 1529 1533 1535 1538 1540 1542 1545 1547 1549 1550 1552
1455 1469 1496 1508 1510 1503 1489 1492 1480 1464 1460 1460 1460 1461 1463 1465 1467 1469 1471 1473 1476 1479 1482 1483 1485 1487 1489 1491 1493 1496 1499 1503 1506 1510 1513 1516 1520 1523 1527 1530 1533 1535 1538 1540 1542 1544 1546 1548 1550
1453 1462 1465 1485 1493 1502 1498 1486 1474 1463 1460 1459 1460 1461 1463 1465 1466 1468 1470 1473 1475 1478 1480 1481 1483 1484 1486 1488 1490 1493 1496 1500 1503 1507 1510 1514 1517 1521 1524 1527 1530 1533 1535 1537 1539 1541 1543 1545 1547
1441 1450 1469 1484 1500 1507 1498 1490 1485 1469 1464 1459 1459 1460 1463 1464 1465 1468 1470 1472 1474 1477 1478 1480 1481 1482 1484 1486 1487 1490 1493 1497 1500 1504 1507 1510 1514 1518 1521 1524 1527 1530 1532 1534 1536 1539 1541 1542 1544
1446 1453 1463 1478 1485 1501 1505 1493 1465 1463 1460 1459 1458 1460 1462 1462 1464 1466 1468 1471 1474 1476 1477 1479 1480 1481 1482 1484 1486 1488 1491 1494 1498 1501 1504 1508 1511 1515 1518 1521 1524 1527 1529 1531 1533 1535 1538 1539 1541
1439 1448 1460 1478 1483 1487 1495 1489 1456 1457 1457 1457 1457 1459 1460 1460 1463 1465 1467 1470 1472 1474 1476 1477 1478 1480 1481 1482 1484 1486 1489 1492 1495 1498 1502 1505 1509 1512 1515 1518 1521 1523 1525 1528 1530 1532 1534 1536 1538